[[{"header":{"parameterUnit":"m.s-1","parameterCategory":2,"la1":30.2991,"la2":30.254,"lo1":-89.0895,"lo2":-89.0444,"dy":0.0017,"dx":0.0017,"nx":28,"ny":28,"refTime":"2024-03-28T03:00:00:Z","depth":"0","parameterNumber":2,"parameterNumberName":"U-component_of_CURRENTS"},"data":[0,0,0,0,0,0,0,0,0,0,0,0,0,0,0,0,0,0,0,0,0,0,0,0,0,0,0,0,0,0,0,0,0,0,0,0,0,0,0,0,0,0,0,0,0,0,0,0,0,0,0,0,0,0,0,0,0,0,-0.1872,-0.1873,0,-0.1939,-0.194,-0.194,-0.1943,-0.1942,-0.1941,-0.1941,-0.1982,-0.1984,-0.1986,0,0,0,0,0,0,0,0,0,0,0,0,0,-0.1781,-0.1782,-0.1872,-0.1873,-0.1874,-0.1939,-0.194,-0.194,-0.1943,-0.1942,-0.1941,-0.194,-0.1982,-0.1984,-0.1986,0,0,0,0,0,0,0,0,0,0,0,0,0,-0.183,-0.1783,-0.1872,-0.1884,-0.1886,-0.1939,-0.194,-0.1941,-0.1943,-0.1942,-0.1941,-0.194,-0.1981,-0.1983,-0.1986,-0.2021,0,0,-0.1994,-0.1995,0,0,0,0,0,0,0,0,-0.1827,-0.1833,-0.1881,-0.1883,-0.1886,-0.1933,-0.1923,-0.1967,-0.1943,-0.1919,-0.1941,-0.1939,-0.1965,-0.1969,-0.1982,-0.2023,-0.2025,-0.1994,-0.1996,-0.1997,-0.1997,0,0,0,0,0,0,0,-0.1823,-0.183,-0.1897,-0.1883,-0.1885,-0.1899,-0.1904,-0.1931,-0.1945,-0.1921,-0.1922,-0.1933,-0.1966,-0.1979,-0.1983,-0.2026,-0.1994,-0.1996,-0.1998,-0.1999,-0.2092,-0.2093,0,0,0,0,0,0,-0.1818,-0.1827,-0.1895,-0.1899,-0.1855,-0.1901,-0.1907,-0.1917,-0.1945,-0.195,-0.1934,-0.1933,-0.1975,-0.198,-0.1984,-0.2018,-0.1997,-0.1999,-0.2001,-0.2091,-0.2093,-0.2094,0,0,0,0,0,0,-0.1816,-0.1824,-0.1892,-0.1866,-0.1875,-0.1903,-0.1915,-0.1919,-0.1929,-0.1955,-0.1958,-0.1939,-0.1975,-0.198,-0.2009,-0.202,-0.2,-0.2003,-0.209,-0.2092,-0.2093,-0.2092,0,0,0,0,0,0,-0.1813,-0.1822,-0.1826,-0.1865,-0.1877,-0.1921,-0.1917,-0.1921,-0.1938,-0.1937,-0.1961,-0.1964,-0.1974,-0.2006,-0.2012,-0.2023,-0.2005,-0.2089,-0.2091,-0.2093,-0.2091,-0.2094,-0.2096,0,0,0,0,0,-0.181,-0.182,-0.1826,-0.1835,-0.1882,-0.1921,-0.1928,-0.1944,-0.1939,-0.1947,-0.1964,-0.1963,-0.2021,-0.2009,-0.2016,-0.2028,-0.2088,-0.209,-0.2093,-0.209,-0.2093,-0.2095,0,0,0,0,0,0,-0.1784,-0.1823,-0.183,-0.1852,-0.1883,-0.1922,-0.1932,-0.1945,-0.1966,-0.1961,-0.1979,-0.1984,-0.2015,-0.2025,-0.2011,-0.2061,-0.2054,-0.2057,-0.2049,-0.2052,-0.2055,-0.208,-0.2007,0,0,0,0,0,-0.1782,-0.1794,-0.1837,-0.1852,-0.1867,-0.1899,-0.1916,-0.1929,-0.1956,-0.1963,-0.1983,-0.2005,-0.2033,-0.2043,-0.207,-0.2098,-0.2105,-0.211,-0.2113,-0.2114,-0.2141,-0.2153,-0.2158,-0.2101,-0.2101,-0.2101,0,0,-0.1775,-0.1797,-0.1804,-0.1846,-0.1868,-0.1916,-0.1905,-0.1931,-0.197,-0.1966,-0.2011,-0.2017,-0.2044,-0.2076,-0.209,-0.2082,-0.213,-0.2117,-0.2118,-0.2145,-0.2156,-0.2161,-0.2166,-0.2102,-0.2102,-0.2102,0,0,-0.1788,-0.1788,-0.1817,-0.1848,-0.1887,-0.1913,-0.1921,-0.1963,-0.1974,-0.2015,-0.2025,-0.204,-0.2079,-0.2103,-0.2119,-0.2154,-0.2145,-0.2152,-0.218,-0.2189,-0.2194,-0.2199,-0.2191,-0.2194,-0.2147,-0.2147,-0.2147,0,-0.1784,-0.1832,-0.1831,-0.1878,-0.1916,-0.1917,-0.1977,-0.1991,-0.2036,-0.2057,-0.2028,-0.2092,-0.21,-0.2155,-0.2161,-0.216,-0.2156,-0.2162,-0.2191,-0.2196,-0.2201,-0.2192,-0.2196,-0.2147,-0.2147,-0.2147,-0.2147,0,-0.1832,-0.1877,-0.1894,-0.1959,-0.1993,-0.2033,-0.2068,-0.2092,-0.2094,-0.2112,-0.2147,-0.2146,-0.2184,-0.2178,-0.218,-0.2221,-0.2203,-0.2193,-0.218,-0.2206,-0.2195,-0.2199,-0.2148,-0.2148,-0.2148,-0.2148,0,0,-0.1821,-0.1915,-0.1926,-0.1976,-0.2042,-0.2075,-0.2135,-0.2196,-0.2228,-0.2227,-0.2272,-0.2287,-0.2261,-0.228,-0.2267,-0.2268,-0.2274,-0.2241,-0.2242,-0.2227,-0.2281,-0.2231,-0.223,-0.2259,-0.226,-0.2262,-0.2251,0,-0.1872,-0.1975,-0.2016,-0.2115,-0.2174,-0.2206,-0.226,-0.2301,-0.2313,-0.2343,-0.2323,-0.2346,-0.2305,-0.2303,-0.2302,-0.2286,-0.229,-0.2278,-0.2266,-0.2266,-0.2213,-0.2236,-0.2177,-0.216,-0.2255,-0.2255,-0.2256,0,-0.1922,-0.1987,-0.2098,-0.2203,-0.223,-0.228,-0.2361,-0.2409,-0.2444,-0.2446,-0.2454,-0.2434,-0.2438,-0.2389,-0.2374,-0.2362,-0.2337,-0.2313,-0.2312,-0.2278,-0.2226,-0.2156,-0.2164,-0.2138,-0.2263,-0.2262,-0.2262,0,-0.1918,-0.2047,-0.2135,-0.2172,-0.2284,-0.233,-0.2378,-0.2433,-0.2464,-0.2501,-0.2506,-0.2511,-0.2489,-0.2469,-0.24,-0.2392,-0.2371,-0.2352,-0.2292,-0.2287,-0.2246,-0.2235,-0.2228,-0.237,-0.237,-0.237,-0.237,0,-0.1963,-0.2027,-0.2131,-0.2176,-0.2256,-0.2329,-0.2399,-0.2444,-0.2497,-0.2513,-0.2537,-0.2532,-0.2506,-0.2478,-0.2431,-0.236,-0.2392,-0.2315,-0.2291,-0.224,-0.223,-0.2213,-0.2215,-0.237,-0.237,-0.237,-0.237,0,-0.1942,-0.2021,-0.2112,-0.2228,-0.2257,-0.2301,-0.2392,-0.2425,-0.2485,-0.2509,-0.2516,-0.2544,-0.2502,-0.247,-0.243,-0.2383,-0.2292,-0.231,-0.2242,-0.221,-0.2129,-0.2134,-0.2116,-0.2041,-0.2252,-0.2251,-0.225,0,-0.1939,-0.1986,-0.2111,-0.2138,-0.2185,-0.2257,-0.2293,-0.2392,-0.2416,-0.249,-0.248,-0.249,-0.2463,-0.24,-0.2341,-0.2278,-0.2239,-0.2181,-0.217,-0.2132,-0.212,-0.2112,-0.2049,-0.2105,-0.2103,-0.2101,-0.21,0,-0.1901,-0.194,-0.2001,-0.2064,-0.211,-0.2174,-0.2228,-0.2258,-0.2348,-0.2382,-0.2397,-0.2402,-0.2379,-0.231,-0.2252,-0.2184,-0.2124,-0.2144,-0.213,-0.2037,-0.2006,-0.1917,-0.2094,-0.2084,-0.2086,-0.2087,-0.2088,-0.2089,-0.1827,-0.1841,-0.1897,-0.1944,-0.2,-0.203,-0.2028,-0.2105,-0.2142,-0.2169,-0.2262,-0.2281,-0.2284,-0.2207,-0.2122,-0.2,-0.2026,-0.195,-0.1966,-0.1967,-0.188,-0.2017,-0.1963,-0.1964,-0.1965,-0.1965,-0.1966,0,-0.1695,-0.1706,-0.1754,-0.1787,-0.1784,-0.1871,-0.1919,-0.1897,-0.1887,-0.2032,-0.206,-0.2173,-0.2107,-0.2079,-0.1993,-0.188,-0.1792,-0.18,-0.1787,-0.1733,-0.1878,-0.1855,-0.1743,-0.1743,-0.1743,-0.1743,-0.1743,-0.1743,-0.1613,-0.1578,-0.1603,-0.1532,-0.1558,-0.151,-0.1509,-0.1534,-0.1617,-0.1727,-0.1874,-0.2042,-0.2089,-0.2136,-0.1954,-0.1811,-0.1714,-0.1665,-0.1639,-0.1768,-0.1783,-0.1798,-0.1777,-0.1651,-0.1651,-0.1442,-0.144,-0.1439]},{"header":{"parameterUnit":"m.s-1","parameterCategory":2,"la1":30.2991,"la2":30.254,"lo1":-89.0895,"lo2":-89.0444,"dy":0.0017,"dx":0.0017,"nx":28,"ny":28,"refTime":"2024-03-28T03:00:00:Z","depth":"0","parameterNumber":3,"parameterNumberName":"V-component_of_CURRENTS"},"data":[0,0,0,0,0,0,0,0,0,0,0,0,0,0,0,0,0,0,0,0,0,0,0,0,0,0,0,0,0,0,0,0,0,0,0,0,0,0,0,0,0,0,0,0,0,0,0,0,0,0,0,0,0,0,0,0,0,0,-0.0189,-0.0188,0,-0.0145,-0.0144,-0.0144,-0.0103,-0.0102,-0.0102,-0.0102,-0.0012,-0.0011,-0.0009,0,0,0,0,0,0,0,0,0,0,0,0,0,-0.0218,-0.0218,-0.0189,-0.0188,-0.0188,-0.0145,-0.0144,-0.0144,-0.0103,-0.0102,-0.0102,-0.0101,-0.0013,-0.0011,-0.0008,0,0,0,0,0,0,0,0,0,0,0,0,0,-0.0192,-0.0218,-0.0189,-0.0163,-0.016,-0.0145,-0.0144,-0.0143,-0.0103,-0.0102,-0.0102,-0.0101,-0.0014,-0.0011,-0.0008,-0.0004,0,0,0.0001,0.0002,0,0,0,0,0,0,0,0,-0.0194,-0.0191,-0.0167,-0.0164,-0.0161,-0.0129,-0.0122,-0.0095,-0.0103,-0.0124,-0.0102,-0.0101,-0.0048,-0.0042,-0.0035,0.0,0.0004,0.0001,0.0003,0.0004,0.0005,0,0,0,0,0,0,0,-0.0196,-0.0193,-0.0171,-0.0166,-0.0163,-0.0146,-0.0142,-0.0117,-0.0089,-0.0122,-0.0119,-0.0115,-0.0046,-0.0038,-0.0033,0.0006,0.0001,0.0004,0.0005,0.0007,0.0052,0.0051,0,0,0,0,0,0,-0.0204,-0.0195,-0.0172,-0.0169,-0.0177,-0.0147,-0.0142,-0.014,-0.009,-0.0083,-0.0116,-0.0114,-0.0044,-0.0036,-0.003,-0.0029,0.0004,0.0007,0.0009,0.0052,0.0052,0.0051,0,0,0,0,0,0,-0.0205,-0.0202,-0.0174,-0.0181,-0.0176,-0.0147,-0.0145,-0.0139,-0.0131,-0.0086,-0.0077,-0.0113,-0.0043,-0.0034,-0.0014,-0.0025,0.0008,0.0011,0.0053,0.0052,0.0051,-0.0023,0,0,0,0,0,0,-0.0206,-0.0203,-0.0205,-0.0182,-0.0176,-0.0172,-0.0145,-0.0139,-0.013,-0.0126,-0.0081,-0.0072,-0.0042,-0.0019,-0.0011,-0.002,0.0013,0.0054,0.0053,0.0052,-0.002,-0.0026,-0.0032,0,0,0,0,0,-0.0207,-0.0211,-0.0205,-0.0202,-0.018,-0.0173,-0.0169,-0.0145,-0.013,-0.0133,-0.0104,-0.0073,-0.002,-0.0017,-0.0008,-0.0016,0.0054,0.0053,0.0052,-0.0017,-0.0025,-0.0032,0,0,0,0,0,0,-0.0221,-0.0206,-0.02,-0.0198,-0.0191,-0.0166,-0.0163,-0.015,-0.013,-0.0124,-0.0081,-0.0071,-0.0057,-0.0028,-0.0026,-0.0006,0.0023,0.0023,-0.0033,-0.004,-0.0046,-0.0051,0.0016,0,0,0,0,0,-0.0227,-0.0228,-0.0213,-0.0213,-0.021,-0.019,-0.0183,-0.0171,-0.015,-0.014,-0.011,-0.0079,-0.0056,-0.0041,-0.0015,-0.0006,0.0033,-0.0004,-0.001,-0.0016,-0.0014,0.0031,0.003,0.0047,0.0047,0.0047,0,0,-0.0232,-0.0225,-0.0224,-0.0217,-0.0206,-0.0214,-0.0184,-0.0179,-0.0184,-0.0133,-0.0127,-0.0098,-0.0058,-0.0049,-0.004,-0.0025,-0.0002,-0.0017,-0.0022,-0.0017,0.003,0.0029,0.0027,0.0046,0.0046,0.0046,0,0,-0.0254,-0.0237,-0.0252,-0.025,-0.0244,-0.0231,-0.0233,-0.0216,-0.0204,-0.02,-0.0164,-0.0144,-0.011,-0.0086,-0.0068,-0.0091,-0.0036,-0.0082,-0.0115,-0.0071,-0.0072,-0.0073,-0.0036,-0.0032,-0.0084,-0.0084,-0.0084,0,-0.0261,-0.0279,-0.0256,-0.0273,-0.0274,-0.0243,-0.0263,-0.0249,-0.0229,-0.0219,-0.0207,-0.0159,-0.0128,-0.0111,-0.0121,-0.0104,-0.007,-0.0093,-0.0079,-0.0079,-0.0078,-0.0039,-0.0034,-0.0088,-0.0087,-0.0087,-0.0087,0,-0.0297,-0.0315,-0.0321,-0.0333,-0.0329,-0.034,-0.0321,-0.0315,-0.0297,-0.0279,-0.0259,-0.0221,-0.0189,-0.0182,-0.0159,-0.0141,-0.0116,-0.0094,-0.0063,-0.0084,-0.0042,-0.0036,-0.0093,-0.0092,-0.0091,-0.009,0,0,-0.0311,-0.0343,-0.0347,-0.0374,-0.0363,-0.0371,-0.0368,-0.0361,-0.0353,-0.0333,-0.032,-0.0294,-0.0262,-0.0241,-0.0207,-0.0175,-0.0147,-0.0137,-0.0133,-0.0104,-0.0051,-0.0029,-0.002,-0.0119,-0.0118,-0.0117,-0.0029,0,-0.0352,-0.0412,-0.0402,-0.0451,-0.0483,-0.0449,-0.045,-0.0433,-0.0398,-0.0374,-0.0333,-0.0305,-0.0287,-0.0268,-0.0237,-0.0163,-0.0131,-0.0173,-0.0031,-0.0027,-0.0008,-0.0012,-0.0001,0.0079,-0.0022,-0.0021,-0.002,0,-0.0396,-0.0434,-0.0495,-0.053,-0.0535,-0.0547,-0.0531,-0.0524,-0.0469,-0.0441,-0.04,-0.035,-0.0307,-0.0281,-0.0181,-0.0206,-0.0138,-0.0083,-0.0077,-0.0024,0.0007,0.0087,0.0096,0.0234,-0.0009,-0.001,-0.0011,0,-0.0448,-0.0499,-0.0554,-0.0566,-0.059,-0.0599,-0.0593,-0.0547,-0.0537,-0.0467,-0.0443,-0.0379,-0.0339,-0.0256,-0.0154,-0.0158,-0.0031,-0.0018,0.0065,0.0067,0.0121,0.0127,0.028,0.0061,0.006,0.006,0.006,0,-0.0505,-0.055,-0.0586,-0.0623,-0.0676,-0.0653,-0.0667,-0.0644,-0.0593,-0.0578,-0.048,-0.045,-0.0327,-0.024,-0.0154,-0.0027,-0.0029,0.0063,0.0094,0.0094,0.0096,0.0256,0.0331,0.0063,0.0063,0.0062,0.0061,0,-0.056,-0.0584,-0.0658,-0.0698,-0.0712,-0.0743,-0.0741,-0.0739,-0.0672,-0.0642,-0.0623,-0.05,-0.0378,-0.0253,-0.0101,-0.0021,0.0192,0.0142,0.0129,0.0157,0.0353,0.0423,0.0641,0.0729,0.0249,0.025,0.0251,0,-0.0592,-0.0639,-0.0722,-0.0762,-0.0785,-0.0817,-0.0835,-0.0796,-0.0782,-0.0679,-0.0673,-0.0534,-0.0454,-0.0217,-0.0037,0.0133,0.0255,0.0255,0.0247,0.0373,0.0475,0.0539,0.0602,0.0289,0.029,0.0291,0.0292,0,-0.0647,-0.0677,-0.0739,-0.0831,-0.0876,-0.0923,-0.0938,-0.0948,-0.088,-0.0849,-0.0769,-0.0691,-0.043,-0.0224,0.0026,0.0138,0.038,0.028,0.0424,0.0532,0.0601,0.0697,0.0219,0.0301,0.03,0.0299,0.0299,0.0298,-0.0674,-0.0729,-0.0805,-0.0887,-0.0946,-0.0999,-0.1028,-0.1037,-0.1037,-0.0986,-0.0879,-0.0776,-0.0393,-0.0037,0.0115,0.0468,0.0472,0.0558,0.0636,0.0691,0.0774,0.0307,0.0413,0.0412,0.0412,0.0412,0.0412,0,-0.0696,-0.0755,-0.0843,-0.0937,-0.1002,-0.1025,-0.1071,-0.1087,-0.1102,-0.1078,-0.101,-0.0679,-0.0299,0.008,0.0606,0.0804,0.0872,0.091,0.101,0.1059,0.0656,0.0653,0.0799,0.0799,0.0798,0.0798,0.0798,0.0798,-0.0708,-0.0788,-0.0839,-0.095,-0.1011,-0.1081,-0.1109,-0.1151,-0.1148,-0.1101,-0.0984,-0.0882,-0.0278,0.0662,0.1166,0.1202,0.1391,0.1374,0.149,0.1207,0.1179,0.1153,0.1169,0.142,0.1421,0.1865,0.1869,0.1873]}],[{"header":{"parameterUnit":"m.s-1","parameterCategory":2,"la1":30.2991,"la2":30.254,"lo1":-89.0895,"lo2":-89.0444,"dy":0.0017,"dx":0.0017,"nx":28,"ny":28,"refTime":"2024-03-28T03:00:00:Z","depth":"2","parameterNumber":2,"parameterNumberName":"U-component_of_CURRENTS"},"data":[0,0,0,0,0,0,0,0,0,0,0,0,0,0,0,0,0,0,0,0,0,0,0,0,0,0,0,0,0,0,0,0,0,0,0,0,0,0,0,0,0,0,0,0,0,0,0,0,0,0,0,0,0,0,0,0,0,0,-0.1821,-0.1821,0,-0.1884,-0.1885,-0.1885,-0.1889,-0.1889,-0.1888,-0.1888,-0.1931,-0.1933,-0.1934,0,0,0,0,0,0,0,0,0,0,0,0,0,-0.1736,-0.1737,-0.182,-0.1821,-0.1822,-0.1884,-0.1885,-0.1886,-0.189,-0.1889,-0.1888,-0.1888,-0.193,-0.1932,-0.1934,0,0,0,0,0,0,0,0,0,0,0,0,0,-0.1782,-0.1738,-0.182,-0.1833,-0.1835,-0.1884,-0.1885,-0.1886,-0.189,-0.1889,-0.1888,-0.1887,-0.193,-0.1932,-0.1935,-0.1968,0,0,-0.1942,-0.1944,0,0,0,0,0,0,0,0,-0.1779,-0.1785,-0.183,-0.1832,-0.1834,-0.1879,-0.1871,-0.1913,-0.189,-0.1867,-0.1888,-0.1887,-0.1914,-0.1917,-0.1929,-0.197,-0.1971,-0.1943,-0.1944,-0.1945,-0.1946,0,0,0,0,0,0,0,-0.1776,-0.1782,-0.1844,-0.1831,-0.1834,-0.1847,-0.1852,-0.1879,-0.1893,-0.1869,-0.187,-0.188,-0.1914,-0.1927,-0.193,-0.1972,-0.1943,-0.1945,-0.1946,-0.1947,-0.2041,-0.2042,0,0,0,0,0,0,-0.1771,-0.1779,-0.1842,-0.1846,-0.1806,-0.185,-0.1855,-0.1865,-0.1893,-0.1897,-0.1881,-0.188,-0.1923,-0.1927,-0.1932,-0.1968,-0.1945,-0.1948,-0.1949,-0.204,-0.2041,-0.2042,0,0,0,0,0,0,-0.1769,-0.1776,-0.184,-0.1815,-0.1825,-0.1852,-0.1862,-0.1866,-0.1877,-0.1902,-0.1905,-0.1887,-0.1922,-0.1928,-0.1958,-0.197,-0.1949,-0.1951,-0.2039,-0.2041,-0.2042,-0.2043,0,0,0,0,0,0,-0.1766,-0.1775,-0.1779,-0.1815,-0.1826,-0.1867,-0.1864,-0.1868,-0.1885,-0.1885,-0.1909,-0.1912,-0.1922,-0.1954,-0.196,-0.1973,-0.1953,-0.2038,-0.204,-0.2041,-0.2042,-0.2045,-0.2047,0,0,0,0,0,-0.1763,-0.1773,-0.1779,-0.1787,-0.1831,-0.1867,-0.1874,-0.1889,-0.1886,-0.1894,-0.1912,-0.1911,-0.197,-0.1957,-0.1964,-0.1978,-0.2037,-0.2039,-0.2041,-0.2041,-0.2044,-0.2047,0,0,0,0,0,0,-0.174,-0.1776,-0.1783,-0.1803,-0.1832,-0.1868,-0.1878,-0.1891,-0.1913,-0.1909,-0.1927,-0.1932,-0.1964,-0.1974,-0.1959,-0.2011,-0.2003,-0.2006,-0.2,-0.2003,-0.2006,-0.2029,-0.1955,0,0,0,0,0,-0.1738,-0.1749,-0.179,-0.1803,-0.1818,-0.1848,-0.1864,-0.1877,-0.1903,-0.1911,-0.1931,-0.1953,-0.1982,-0.1992,-0.2019,-0.2048,-0.2054,-0.2061,-0.2064,-0.2065,-0.209,-0.2103,-0.2108,-0.205,-0.205,-0.205,0,0,-0.1732,-0.1753,-0.1759,-0.1798,-0.1819,-0.1864,-0.1854,-0.1879,-0.1917,-0.1913,-0.1959,-0.1966,-0.1993,-0.2025,-0.204,-0.2032,-0.2082,-0.2068,-0.2069,-0.2094,-0.2106,-0.2111,-0.2116,-0.2051,-0.2051,-0.2051,0,0,-0.1746,-0.1745,-0.1773,-0.1801,-0.1838,-0.1862,-0.187,-0.191,-0.1922,-0.1963,-0.1973,-0.199,-0.203,-0.2054,-0.207,-0.2105,-0.2097,-0.2105,-0.2132,-0.2143,-0.2148,-0.2153,-0.2147,-0.2151,-0.2101,-0.2101,-0.2101,0,-0.1742,-0.1788,-0.1785,-0.183,-0.1867,-0.1866,-0.1924,-0.1937,-0.1982,-0.2004,-0.1976,-0.2041,-0.205,-0.2106,-0.2112,-0.2112,-0.2109,-0.2114,-0.2145,-0.215,-0.2155,-0.2148,-0.2152,-0.2101,-0.2101,-0.2101,-0.2101,0,-0.1787,-0.1832,-0.1848,-0.1908,-0.1939,-0.1979,-0.2011,-0.2036,-0.2041,-0.2057,-0.2094,-0.2095,-0.2134,-0.2129,-0.2131,-0.2173,-0.2156,-0.2147,-0.2134,-0.216,-0.2152,-0.2156,-0.2102,-0.2102,-0.2102,-0.2101,0,0,-0.1777,-0.1868,-0.1878,-0.1931,-0.1989,-0.2023,-0.2079,-0.2138,-0.2171,-0.2171,-0.2218,-0.2234,-0.221,-0.2229,-0.2218,-0.2219,-0.2228,-0.2194,-0.2195,-0.2182,-0.2239,-0.2185,-0.2185,-0.2215,-0.2217,-0.2218,-0.2212,0,-0.1828,-0.193,-0.1965,-0.2065,-0.2126,-0.2154,-0.2205,-0.2244,-0.2255,-0.2286,-0.2269,-0.2292,-0.2252,-0.2253,-0.2253,-0.2238,-0.2245,-0.2231,-0.2223,-0.2224,-0.2167,-0.219,-0.2016,-0.1994,-0.2216,-0.2217,-0.2217,0,-0.1873,-0.1943,-0.2052,-0.2162,-0.2188,-0.2236,-0.2317,-0.2362,-0.2394,-0.2395,-0.2402,-0.2381,-0.2387,-0.2339,-0.2326,-0.2313,-0.2293,-0.2269,-0.2268,-0.2229,-0.2179,-0.2009,-0.1993,-0.2225,-0.2224,-0.2224,-0.2223,0,-0.1873,-0.2007,-0.2096,-0.2133,-0.2245,-0.2292,-0.2341,-0.2389,-0.2419,-0.2453,-0.2455,-0.246,-0.2441,-0.2423,-0.2354,-0.2347,-0.2327,-0.231,-0.225,-0.2245,-0.2105,-0.2086,-0.2331,-0.2331,-0.2331,-0.2331,-0.2331,0,-0.1915,-0.1984,-0.2098,-0.2144,-0.2232,-0.2303,-0.2372,-0.2416,-0.2463,-0.2473,-0.2491,-0.2481,-0.2459,-0.243,-0.2386,-0.2315,-0.2349,-0.2271,-0.2249,-0.2098,-0.2079,-0.2294,-0.229,-0.2331,-0.2331,-0.2331,-0.2331,0,-0.1888,-0.1971,-0.207,-0.2196,-0.2231,-0.2281,-0.2373,-0.2403,-0.2457,-0.2473,-0.2479,-0.2496,-0.2452,-0.2422,-0.2385,-0.2338,-0.2292,-0.2268,-0.2084,-0.2042,-0.2199,-0.2195,-0.2214,-0.2212,-0.221,-0.2209,-0.2208,0,-0.1883,-0.1932,-0.207,-0.2102,-0.2153,-0.2236,-0.2272,-0.2373,-0.2391,-0.2452,-0.2437,-0.2444,-0.2402,-0.2339,-0.2264,-0.2198,-0.2249,-0.2017,-0.199,-0.2215,-0.2191,-0.219,-0.2188,-0.1792,-0.1787,-0.1784,-0.1781,0,-0.1843,-0.1883,-0.1947,-0.2021,-0.2073,-0.2142,-0.2202,-0.2226,-0.2311,-0.2333,-0.2328,-0.2321,-0.2282,-0.2135,-0.2078,-0.201,-0.2014,-0.1945,-0.2222,-0.1857,-0.1819,-0.1795,-0.1807,-0.1749,-0.1752,-0.1755,-0.1756,-0.1758,-0.177,-0.1784,-0.1842,-0.1896,-0.1956,-0.1982,-0.1983,-0.2049,-0.2071,-0.2062,-0.2154,-0.2098,-0.2071,-0.1904,-0.1787,-0.1702,-0.1852,-0.176,-0.177,-0.1784,-0.1745,-0.1708,-0.1608,-0.161,-0.1612,-0.1614,-0.1616,0,-0.1648,-0.1655,-0.1702,-0.174,-0.1733,-0.1826,-0.1868,-0.1833,-0.1799,-0.1872,-0.1867,-0.1694,-0.1616,-0.1592,-0.1429,-0.1398,-0.1364,-0.1321,-0.1276,-0.1309,-0.1338,-0.1276,-0.1014,-0.1012,-0.101,-0.1009,0,0,-0.1572,-0.1536,-0.1555,-0.1482,-0.151,-0.146,-0.1455,-0.1447,-0.1473,-0.1436,-0.1442,-0.1575,-0.1599,-0.1329,-0.1242,-0.1111,-0.1196,-0.1047,-0.1534,-0.1518,-0.1545,-0.1599,-0.1542,0,0,0,0,0]},{"header":{"parameterUnit":"m.s-1","parameterCategory":2,"la1":30.2991,"la2":30.254,"lo1":-89.0895,"lo2":-89.0444,"dy":0.0017,"dx":0.0017,"nx":28,"ny":28,"refTime":"2024-03-28T03:00:00:Z","depth":"2","parameterNumber":3,"parameterNumberName":"V-component_of_CURRENTS"},"data":[0,0,0,0,0,0,0,0,0,0,0,0,0,0,0,0,0,0,0,0,0,0,0,0,0,0,0,0,0,0,0,0,0,0,0,0,0,0,0,0,0,0,0,0,0,0,0,0,0,0,0,0,0,0,0,0,0,0,-0.01,-0.01,0,-0.0057,-0.0057,-0.0056,-0.0016,-0.0016,-0.0015,-0.0015,0.0074,0.0076,0.0077,0,0,0,0,0,0,0,0,0,0,0,0,0,-0.0129,-0.0129,-0.01,-0.01,-0.0099,-0.0057,-0.0057,-0.0056,-0.0016,-0.0016,-0.0015,-0.0015,0.0073,0.0075,0.0078,0,0,0,0,0,0,0,0,0,0,0,0,0,-0.0104,-0.0129,-0.01,-0.0075,-0.0072,-0.0057,-0.0057,-0.0056,-0.0016,-0.0016,-0.0015,-0.0014,0.0072,0.0075,0.0078,0.0082,0,0,0.0087,0.0088,0,0,0,0,0,0,0,0,-0.0105,-0.0103,-0.0079,-0.0076,-0.0073,-0.0042,-0.0034,-0.0007,-0.0016,-0.0037,-0.0015,-0.0014,0.0038,0.0044,0.0051,0.0087,0.009,0.0087,0.0089,0.009,0.0091,0,0,0,0,0,0,0,-0.0107,-0.0104,-0.0083,-0.0079,-0.0075,-0.0059,-0.0055,-0.0029,-0.0002,-0.0035,-0.0032,-0.0028,0.0041,0.0048,0.0053,0.0092,0.0087,0.009,0.0091,0.0093,0.0137,0.0136,0,0,0,0,0,0,-0.0115,-0.0106,-0.0084,-0.0081,-0.0089,-0.0059,-0.0054,-0.0052,-0.0003,0.0004,-0.0029,-0.0027,0.0043,0.005,0.0057,0.0056,0.009,0.0093,0.0094,0.0137,0.0137,0.0136,0,0,0,0,0,0,-0.0116,-0.0114,-0.0086,-0.0093,-0.0088,-0.0059,-0.0057,-0.0052,-0.0044,0.0001,0.0009,-0.0027,0.0043,0.0053,0.0071,0.006,0.0094,0.0097,0.0138,0.0137,0.0136,0.006,0,0,0,0,0,0,-0.0117,-0.0114,-0.0117,-0.0094,-0.0088,-0.0085,-0.0058,-0.0051,-0.0043,-0.0039,0.0005,0.0014,0.0045,0.0067,0.0074,0.0064,0.0099,0.0139,0.0138,0.0137,0.0063,0.0056,0.0051,0,0,0,0,0,-0.0118,-0.0123,-0.0117,-0.0114,-0.0092,-0.0086,-0.0082,-0.0058,-0.0044,-0.0047,-0.0018,0.0013,0.0066,0.0068,0.0077,0.0068,0.0139,0.0138,0.0137,0.0066,0.0058,0.0051,0,0,0,0,0,0,-0.0135,-0.0119,-0.0112,-0.0111,-0.0104,-0.0079,-0.0078,-0.0064,-0.0045,-0.0039,0.0004,0.0015,0.0027,0.0057,0.0059,0.0078,0.0108,0.0109,0.0051,0.0044,0.0038,0.0032,0.0101,0,0,0,0,0,-0.0142,-0.0142,-0.0127,-0.0128,-0.0125,-0.0104,-0.0098,-0.0086,-0.0065,-0.0055,-0.0026,0.0006,0.0029,0.0043,0.0069,0.0078,0.0115,0.0079,0.0073,0.0067,0.0069,0.0111,0.0109,0.0132,0.0132,0.0132,0,0,-0.0148,-0.014,-0.014,-0.0132,-0.0122,-0.013,-0.0098,-0.0095,-0.01,-0.0049,-0.0043,-0.0014,0.0026,0.0035,0.0044,0.0059,0.0078,0.0066,0.0061,0.0065,0.011,0.0108,0.0106,0.0131,0.0131,0.0131,0,0,-0.0172,-0.0156,-0.0171,-0.0169,-0.0162,-0.0148,-0.0151,-0.0133,-0.0122,-0.0118,-0.0082,-0.0063,-0.0028,-0.0004,0.0014,-0.001,0.0044,-0.0,-0.0035,0.0005,0.0004,0.0003,0.0037,0.004,-0.0003,-0.0003,-0.0003,0,-0.0181,-0.0199,-0.0175,-0.0192,-0.0193,-0.0161,-0.0182,-0.0168,-0.0147,-0.0138,-0.0126,-0.0078,-0.0047,-0.0031,-0.0041,-0.0024,0.0009,-0.0013,-0.0003,-0.0003,-0.0002,0.0033,0.0038,-0.0007,-0.0007,-0.0006,-0.0006,0,-0.0219,-0.0236,-0.0244,-0.0254,-0.0251,-0.0262,-0.0242,-0.0237,-0.0219,-0.02,-0.0181,-0.0143,-0.0111,-0.0104,-0.008,-0.0065,-0.004,-0.0017,0.0014,-0.0009,0.003,0.0035,-0.0013,-0.0011,-0.001,-0.0009,0,0,-0.0236,-0.0266,-0.0271,-0.0298,-0.0286,-0.0294,-0.0292,-0.0284,-0.0278,-0.0257,-0.0246,-0.0219,-0.0187,-0.0165,-0.0132,-0.0102,-0.0078,-0.0063,-0.0059,-0.0033,0.0011,0.0033,0.0042,-0.005,-0.0049,-0.0049,0.0032,0,-0.0278,-0.0338,-0.0327,-0.0377,-0.0409,-0.0375,-0.0376,-0.0359,-0.0325,-0.0302,-0.026,-0.0234,-0.0213,-0.0195,-0.0166,-0.0094,-0.0064,-0.0102,0.0033,0.0037,0.0057,0.0049,0.0029,0.01,0.0038,0.0039,0.004,0,-0.0323,-0.0362,-0.0422,-0.0458,-0.0463,-0.0475,-0.0461,-0.0453,-0.04,-0.0372,-0.0333,-0.0283,-0.0242,-0.0214,-0.0118,-0.0141,-0.0074,-0.002,-0.0015,0.0038,0.007,0.0116,0.0113,0.005,0.005,0.0049,0.0048,0,-0.0374,-0.0428,-0.0482,-0.0494,-0.0519,-0.0528,-0.0523,-0.0478,-0.0468,-0.0402,-0.0379,-0.0317,-0.0278,-0.0198,-0.0097,-0.0099,0.0021,0.0036,0.0117,0.0119,0.0146,0.015,0.011,0.011,0.011,0.011,0.011,0,-0.043,-0.0476,-0.0516,-0.0551,-0.0606,-0.0583,-0.0599,-0.0577,-0.0528,-0.0513,-0.0418,-0.0389,-0.0269,-0.0185,-0.0099,0.0023,0.0021,0.0113,0.0144,0.0118,0.0118,0.0113,0.0113,0.0113,0.0112,0.0112,0.0111,0,-0.048,-0.0506,-0.058,-0.0624,-0.0639,-0.0671,-0.0671,-0.0669,-0.0606,-0.0579,-0.0561,-0.0441,-0.0324,-0.0202,-0.0054,0.0025,0.0138,0.0184,0.0142,0.0165,0.021,0.0204,0.0284,0.0285,0.0286,0.0287,0.0288,0,-0.0511,-0.0557,-0.0642,-0.0683,-0.0706,-0.0742,-0.0761,-0.0725,-0.0713,-0.0616,-0.061,-0.0477,-0.0399,-0.017,0.0002,0.0166,0.0171,0.0259,0.0251,0.0207,0.0229,0.0221,0.0214,0.0254,0.0255,0.0255,0.0255,0,-0.0563,-0.0592,-0.0651,-0.0746,-0.0793,-0.0841,-0.0859,-0.0869,-0.0804,-0.0776,-0.07,-0.0624,-0.0379,-0.019,0.005,0.0149,0.0229,0.0274,0.0253,0.0209,0.0185,0.0204,0.0197,0.0259,0.0259,0.0259,0.0258,0.0258,-0.059,-0.0642,-0.0714,-0.0798,-0.0857,-0.0909,-0.0939,-0.0944,-0.0943,-0.0881,-0.0794,-0.0672,-0.0436,-0.0119,0.0086,0.0289,0.027,0.0326,0.0322,0.0319,0.0297,0.0276,0.0363,0.0363,0.0363,0.0363,0.0364,0,-0.0615,-0.067,-0.0754,-0.0847,-0.0907,-0.0934,-0.0978,-0.0982,-0.0989,-0.0942,-0.0873,-0.0636,-0.04,-0.0149,0.0166,0.0354,0.0351,0.04,0.0355,0.0349,0.0344,0.0322,0.0396,0.0397,0.0398,0.0398,0,0,-0.0629,-0.0706,-0.0752,-0.0857,-0.0917,-0.0981,-0.1007,-0.1019,-0.0991,-0.0958,-0.0887,-0.0752,-0.0439,-0.0205,0.0053,0.0231,0.0244,0.0258,0.0209,0.012,0.0113,0.0277,0.0234,0,0,0,0,0]}],[{"header":{"parameterUnit":"m.s-1","parameterCategory":2,"la1":30.2991,"la2":30.254,"lo1":-89.0895,"lo2":-89.0444,"dy":0.0017,"dx":0.0017,"nx":28,"ny":28,"refTime":"2024-03-28T03:00:00:Z","depth":"4","parameterNumber":2,"parameterNumberName":"U-component_of_CURRENTS"},"data":[0,0,0,0,0,0,0,0,0,0,0,0,0,0,0,0,0,0,0,0,0,0,0,0,0,0,0,0,0,0,0,0,0,0,0,0,0,0,0,0,0,0,0,0,0,0,0,0,0,0,0,0,0,0,0,0,0,0,-0.1224,-0.1224,0,-0.1289,-0.129,-0.1291,-0.1332,-0.1333,-0.1333,-0.1333,-0.1434,-0.1436,-0.1439,0,0,0,0,0,0,0,0,0,0,0,0,0,-0.1165,-0.1166,-0.1224,-0.1224,-0.1225,-0.1289,-0.129,-0.1291,-0.1332,-0.1333,-0.1333,-0.1333,-0.1433,-0.1436,-0.1439,0,0,0,0,0,0,0,0,0,0,0,0,0,-0.1207,-0.1166,-0.1224,-0.1254,-0.1257,-0.1289,-0.129,-0.1291,-0.1332,-0.1333,-0.1333,-0.1333,-0.1432,-0.1436,-0.1439,-0.1455,0,0,-0.1451,-0.1452,0,0,0,0,0,0,0,0,-0.1204,-0.1209,-0.1248,-0.1252,-0.1255,-0.1303,-0.1306,-0.1348,-0.1332,-0.1304,-0.1333,-0.1334,-0.1393,-0.14,-0.1411,-0.146,-0.1464,-0.1451,-0.1453,-0.1455,-0.1456,0,0,0,0,0,0,0,-0.1201,-0.1206,-0.125,-0.1249,-0.1253,-0.1274,-0.128,-0.1314,-0.1346,-0.1306,-0.131,-0.1317,-0.1395,-0.1407,-0.1414,-0.1465,-0.1451,-0.1454,-0.1456,-0.1458,-0.1606,-0.1607,0,0,0,0,0,0,-0.1191,-0.1203,-0.1248,-0.1252,-0.123,-0.1275,-0.1282,-0.1287,-0.1345,-0.1354,-0.1316,-0.1318,-0.1401,-0.1409,-0.1418,-0.1503,-0.1455,-0.1458,-0.146,-0.1604,-0.1606,-0.1608,0,0,0,0,0,0,-0.1189,-0.1194,-0.1245,-0.1229,-0.1237,-0.1275,-0.1282,-0.1289,-0.1322,-0.1352,-0.1362,-0.1345,-0.1402,-0.1412,-0.1472,-0.1504,-0.146,-0.1463,-0.1602,-0.1605,-0.1607,-0.1633,0,0,0,0,0,0,-0.1187,-0.1193,-0.1207,-0.1228,-0.1238,-0.1275,-0.1281,-0.129,-0.1324,-0.1328,-0.138,-0.1388,-0.1403,-0.1466,-0.1475,-0.1509,-0.1466,-0.16,-0.1603,-0.1606,-0.163,-0.1636,-0.1641,0,0,0,0,0,-0.1185,-0.1198,-0.1208,-0.1214,-0.1251,-0.1275,-0.1283,-0.1311,-0.1325,-0.1342,-0.1384,-0.1388,-0.1493,-0.1471,-0.1481,-0.1516,-0.1598,-0.1602,-0.1606,-0.1627,-0.1634,-0.1641,0,0,0,0,0,0,-0.1184,-0.1204,-0.1215,-0.1235,-0.1259,-0.1283,-0.1305,-0.1323,-0.1368,-0.1381,-0.1409,-0.1421,-0.1485,-0.1499,-0.1474,-0.157,-0.1547,-0.1553,-0.1559,-0.1567,-0.1572,-0.157,-0.1469,0,0,0,0,0,-0.1188,-0.1202,-0.1224,-0.1243,-0.1256,-0.1285,-0.1304,-0.1323,-0.1358,-0.1379,-0.1417,-0.1462,-0.1506,-0.1535,-0.1571,-0.1624,-0.1618,-0.1655,-0.1661,-0.1665,-0.1672,-0.1689,-0.1696,-0.1621,-0.1621,-0.1621,0,0,-0.1194,-0.1207,-0.1217,-0.1244,-0.1267,-0.1294,-0.1298,-0.1331,-0.1366,-0.1383,-0.1454,-0.1485,-0.1525,-0.1584,-0.1614,-0.1603,-0.1682,-0.167,-0.1674,-0.1678,-0.1694,-0.1701,-0.1707,-0.1623,-0.1623,-0.1623,0,0,-0.1208,-0.1224,-0.1242,-0.1262,-0.1296,-0.1314,-0.1327,-0.1366,-0.1397,-0.1458,-0.1483,-0.1536,-0.1604,-0.1638,-0.1663,-0.1724,-0.171,-0.1739,-0.1769,-0.1786,-0.1792,-0.1797,-0.1784,-0.1788,-0.1743,-0.1743,-0.1743,0,-0.1219,-0.1227,-0.1253,-0.1276,-0.1289,-0.1325,-0.1344,-0.1389,-0.1447,-0.1474,-0.1487,-0.1599,-0.1631,-0.1702,-0.1725,-0.1738,-0.1731,-0.1736,-0.1791,-0.1796,-0.1801,-0.1787,-0.1791,-0.1745,-0.1745,-0.1745,-0.1745,0,-0.1242,-0.1251,-0.1263,-0.13,-0.1331,-0.1344,-0.1399,-0.144,-0.1482,-0.1524,-0.1608,-0.166,-0.1719,-0.1745,-0.1757,-0.1816,-0.1794,-0.1791,-0.1767,-0.1809,-0.1792,-0.1796,-0.1747,-0.1747,-0.1746,-0.1746,0,0,-0.1244,-0.1268,-0.1275,-0.1269,-0.133,-0.1344,-0.1417,-0.1468,-0.1511,-0.1593,-0.1643,-0.174,-0.1769,-0.18,-0.1828,-0.1856,-0.188,-0.1841,-0.1841,-0.1815,-0.1894,-0.177,-0.1761,-0.1883,-0.1884,-0.1885,-0.1863,0,-0.1242,-0.1253,-0.1285,-0.1301,-0.1297,-0.135,-0.141,-0.1479,-0.1545,-0.1611,-0.1687,-0.1759,-0.1792,-0.1822,-0.1859,-0.1879,-0.1893,-0.1885,-0.1869,-0.1868,-0.1741,-0.1763,-0.1889,-0.1865,-0.1866,-0.1866,-0.1867,0,-0.1251,-0.1239,-0.1246,-0.1254,-0.1265,-0.1301,-0.1369,-0.1424,-0.154,-0.1609,-0.1702,-0.1759,-0.1842,-0.1848,-0.1916,-0.1908,-0.1903,-0.1913,-0.1912,-0.179,-0.175,-0.182,-0.1873,-0.1872,-0.1872,-0.1871,-0.1871,0,-0.1198,-0.121,-0.1197,-0.1203,-0.1244,-0.1265,-0.1298,-0.1416,-0.1455,-0.1601,-0.1657,-0.1772,-0.1817,-0.1861,-0.1903,-0.1906,-0.1943,-0.1943,-0.1825,-0.1815,-0.1922,-0.1917,-0.1966,-0.1966,-0.1966,-0.1966,-0.1966,0,-0.1152,-0.1147,-0.1163,-0.1146,-0.1145,-0.1207,-0.1239,-0.1323,-0.1418,-0.1478,-0.164,-0.1702,-0.1822,-0.1863,-0.1894,-0.1866,-0.1936,-0.1827,-0.1805,-0.1932,-0.1929,-0.1923,-0.1918,-0.1965,-0.1965,-0.1965,-0.1966,0,-0.1112,-0.1117,-0.1099,-0.1113,-0.1114,-0.1123,-0.1164,-0.1189,-0.1327,-0.1403,-0.1449,-0.1625,-0.1712,-0.18,-0.1858,-0.1826,-0.1831,-0.1796,-0.1912,-0.1897,-0.169,-0.1688,-0.1657,-0.1652,-0.1648,-0.1645,-0.1642,0,-0.1094,-0.1076,-0.1067,-0.1052,-0.1055,-0.1058,-0.1059,-0.1141,-0.1179,-0.1352,-0.1378,-0.1497,-0.1614,-0.1613,-0.1712,-0.1745,-0.1736,-0.1704,-0.1716,-0.1679,-0.1661,-0.1664,-0.1666,-0.1636,-0.1635,-0.1634,-0.1633,0,-0.1061,-0.1075,-0.1054,-0.1019,-0.0998,-0.0978,-0.0986,-0.0984,-0.1099,-0.1194,-0.1296,-0.1365,-0.1449,-0.1534,-0.1563,-0.1591,-0.1715,-0.1664,-0.1673,-0.1684,-0.1654,-0.164,-0.1647,-0.162,-0.1622,-0.1623,-0.1624,0,-0.1057,-0.105,-0.1035,-0.0988,-0.0982,-0.0955,-0.0931,-0.095,-0.0977,-0.1141,-0.1146,-0.1324,-0.1419,-0.145,-0.1483,-0.1499,-0.1489,-0.1442,-0.1462,-0.1478,-0.1435,-0.1371,-0.1226,0,0,0,0,0,-0.1038,-0.1021,-0.1,-0.0959,-0.0958,-0.0942,-0.0933,-0.0919,-0.0972,-0.1002,-0.1076,-0.1164,-0.1247,-0.1323,-0.131,-0.1411,-0.1499,-0.1387,-0.1456,-0.1547,-0.1562,-0.1531,0,0,0,0,0,0,-0.1024,-0.1027,-0.0996,-0.0965,-0.0928,-0.0917,-0.0902,-0.091,-0.0929,-0.0996,-0.1051,-0.1091,-0.1195,-0.1264,-0.1299,-0.1313,-0.1328,-0.1452,-0.1448,-0.1538,-0.1552,-0.1564,-0.1538,0,0,0,0,0]},{"header":{"parameterUnit":"m.s-1","parameterCategory":2,"la1":30.2991,"la2":30.254,"lo1":-89.0895,"lo2":-89.0444,"dy":0.0017,"dx":0.0017,"nx":28,"ny":28,"refTime":"2024-03-28T03:00:00:Z","depth":"4","parameterNumber":3,"parameterNumberName":"V-component_of_CURRENTS"},"data":[0,0,0,0,0,0,0,0,0,0,0,0,0,0,0,0,0,0,0,0,0,0,0,0,0,0,0,0,0,0,0,0,0,0,0,0,0,0,0,0,0,0,0,0,0,0,0,0,0,0,0,0,0,0,0,0,0,0,-0.0004,-0.0004,0,0.002,0.002,0.0021,0.0055,0.0056,0.0056,0.0057,0.013,0.0131,0.0132,0,0,0,0,0,0,0,0,0,0,0,0,0,-0.0012,-0.0012,-0.0004,-0.0003,-0.0003,0.002,0.002,0.0021,0.0055,0.0056,0.0056,0.0057,0.0129,0.0131,0.0132,0,0,0,0,0,0,0,0,0,0,0,0,0,0.0,-0.0012,-0.0004,0.0016,0.0018,0.002,0.002,0.0021,0.0055,0.0056,0.0057,0.0057,0.0129,0.0131,0.0133,0.0129,0,0,0.0139,0.014,0,0,0,0,0,0,0,0,-0.0001,0.0,0.0013,0.0015,0.0017,0.0035,0.0044,0.0059,0.0055,0.0041,0.0057,0.0058,0.0102,0.0106,0.0108,0.0132,0.0135,0.0139,0.0141,0.0141,0.0142,0,0,0,0,0,0,0,-0.0002,-0.0,0.0006,0.0013,0.0016,0.0027,0.0029,0.0047,0.0068,0.0043,0.0045,0.0047,0.0103,0.0106,0.011,0.0136,0.0139,0.0141,0.0142,0.0143,0.0171,0.017,0,0,0,0,0,0,-0.0007,-0.0001,0.0005,0.0007,0.001,0.0026,0.0029,0.0029,0.0066,0.0072,0.0046,0.0048,0.0102,0.0108,0.0113,0.0107,0.0141,0.0143,0.0145,0.0172,0.0171,0.017,0,0,0,0,0,0,-0.0007,-0.0006,0.0004,0.0003,0.0005,0.0025,0.0025,0.0029,0.0034,0.0069,0.0076,0.0048,0.0103,0.011,0.0123,0.011,0.0144,0.0146,0.0172,0.0171,0.0171,0.0097,0,0,0,0,0,0,-0.0007,-0.0007,-0.0011,0.0003,0.0005,-0.0002,0.0024,0.0029,0.0034,0.0037,0.0072,0.008,0.0104,0.0119,0.0125,0.0114,0.0148,0.0173,0.0172,0.0171,0.01,0.0094,0.0088,0,0,0,0,0,-0.0008,-0.0019,-0.0011,-0.001,-0.0,-0.0003,-0.0001,0.0017,0.0033,0.0027,0.0051,0.0079,0.0118,0.012,0.0127,0.0116,0.0173,0.0172,0.0171,0.0103,0.0095,0.0089,0,0,0,0,0,0,-0.0026,-0.0016,-0.0007,-0.0014,-0.0012,0.0003,-0.0,0.0013,0.0026,0.0033,0.0069,0.0077,0.0085,0.011,0.0113,0.0122,0.0151,0.0151,0.0097,0.009,0.0084,0.0078,0.015,0,0,0,0,0,-0.0032,-0.0036,-0.0026,-0.0034,-0.0033,-0.0017,-0.0015,-0.0005,0.001,0.0017,0.004,0.0067,0.0084,0.0094,0.0114,0.0116,0.0143,0.0116,0.011,0.0105,0.0104,0.013,0.0127,0.0166,0.0166,0.0166,0,0,-0.0042,-0.0037,-0.0039,-0.0038,-0.0032,-0.0044,-0.0014,-0.0016,-0.0024,0.0023,0.0022,0.0047,0.008,0.0082,0.0088,0.0102,0.0105,0.0103,0.0098,0.0101,0.0129,0.0125,0.0121,0.0166,0.0166,0.0166,0,0,-0.007,-0.0059,-0.0074,-0.0075,-0.0071,-0.0064,-0.0066,-0.0055,-0.0046,-0.0048,-0.0014,0.0001,0.0025,0.0044,0.0057,0.0032,0.0073,0.0041,0.0005,0.003,0.0027,0.0024,0.0039,0.0039,0.0037,0.0037,0.0037,0,-0.0083,-0.0098,-0.0081,-0.0097,-0.0104,-0.0076,-0.0099,-0.009,-0.0077,-0.0072,-0.0056,-0.0022,0.0006,0.0011,0.0003,0.0018,0.0038,0.0026,0.0021,0.002,0.0019,0.0035,0.0035,0.0034,0.0034,0.0034,0.0035,0,-0.0121,-0.0136,-0.0145,-0.0156,-0.0163,-0.0176,-0.0165,-0.0165,-0.015,-0.0135,-0.0125,-0.009,-0.0068,-0.0059,-0.0036,-0.0033,-0.0015,0.001,0.0036,0.001,0.0029,0.0031,0.0028,0.003,0.0031,0.0032,0,0,-0.0145,-0.0167,-0.0172,-0.0191,-0.0194,-0.0206,-0.022,-0.0223,-0.0229,-0.0205,-0.0213,-0.0179,-0.0149,-0.0132,-0.0098,-0.0078,-0.0073,-0.0042,-0.0039,-0.0032,-0.0025,-0.0015,-0.0011,-0.0048,-0.0048,-0.0048,-0.0014,0,-0.0181,-0.0223,-0.0228,-0.0274,-0.0294,-0.0284,-0.0304,-0.0301,-0.0284,-0.0282,-0.0237,-0.0226,-0.0179,-0.0171,-0.0144,-0.0085,-0.0069,-0.0085,0.0005,0.0008,0.0016,-0.0009,-0.0047,-0.0012,-0.0012,-0.0011,-0.0011,0,-0.0218,-0.024,-0.0288,-0.0332,-0.0342,-0.0368,-0.0389,-0.04,-0.0383,-0.037,-0.0341,-0.0299,-0.0262,-0.0223,-0.0138,-0.0148,-0.0096,-0.0052,-0.0049,-0.001,0.0022,0.0025,-0.0007,-0.0007,-0.0007,-0.0008,-0.0008,0,-0.0235,-0.0289,-0.0327,-0.0339,-0.0378,-0.0405,-0.0426,-0.0425,-0.0435,-0.0416,-0.0415,-0.0359,-0.0333,-0.0255,-0.0151,-0.0145,-0.0059,-0.0038,0.0016,0.0017,0.0031,0.0033,0.0009,0.0009,0.0009,0.0009,0.0009,0,-0.0264,-0.0301,-0.0341,-0.0357,-0.0416,-0.0435,-0.0481,-0.0488,-0.0498,-0.0508,-0.0455,-0.0445,-0.0338,-0.0269,-0.0176,-0.0071,-0.0074,0.0004,0.0026,-0.0003,-0.0004,0.0031,0.0033,0.001,0.001,0.001,0.0009,0,-0.0278,-0.03,-0.0347,-0.0397,-0.0421,-0.0459,-0.0521,-0.0543,-0.055,-0.0563,-0.0559,-0.0507,-0.0415,-0.0305,-0.0182,-0.0107,-0.0006,0.0028,-0.0022,-0.0002,0.0055,0.0053,0.0084,0.0084,0.0085,0.0085,0.0086,0,-0.0292,-0.0314,-0.0368,-0.0398,-0.0426,-0.0485,-0.0523,-0.0559,-0.0578,-0.0591,-0.0594,-0.0531,-0.0476,-0.03,-0.0184,-0.0022,0.0006,0.0049,0.0059,0.0044,0.0063,0.006,0.0057,0.0086,0.0087,0.0087,0.0087,0,-0.032,-0.0332,-0.0361,-0.0418,-0.0466,-0.0518,-0.0575,-0.0596,-0.0628,-0.0636,-0.0613,-0.0531,-0.0438,-0.03,-0.0178,-0.0057,0.0019,0.0055,0.0055,0.0065,0.0048,0.0066,0.0062,0.0089,0.0088,0.0088,0.0088,0,-0.0338,-0.0365,-0.0401,-0.0451,-0.0504,-0.0548,-0.0571,-0.0602,-0.0628,-0.0639,-0.0629,-0.0534,-0.0484,-0.0319,-0.02,-0.0085,-0.0054,-0.0015,-0.0011,-0.0012,-0.0043,-0.0078,-0.0064,0,0,0,0,0,-0.0363,-0.04,-0.0443,-0.05,-0.054,-0.0574,-0.0612,-0.0625,-0.0654,-0.0635,-0.0636,-0.0545,-0.0387,-0.0323,-0.0205,-0.0184,-0.0032,-0.0043,0.0015,0.0099,0.0097,0.0079,0,0,0,0,0,0,-0.0387,-0.0434,-0.0452,-0.0528,-0.0567,-0.0624,-0.064,-0.0647,-0.0635,-0.0641,-0.0552,-0.0524,-0.0362,-0.0459,-0.0209,-0.0177,-0.0124,0.0028,0.003,0.01,0.0098,0.0097,0.0078,0,0,0,0,0]}]]